Regional Weather Roundup
Issued by NWS

Home | Current Version | Previous Version | Graphics & Text | Print | Product List | Glossary On
Versions: 1 2 3 4 5 6 7 8 9 10 11 12 13 14 15 16 17 18 19 20 21 22 23 24 25 26 27 28 29 30 31 32 33 34 35 36 37 38 39 40 41 42 43 44 45 46 47 48 49 50
000
ASUS43 KLMK 220410
RWRKY
KENTUCKY REGIONAL WEATHER ROUNDUP
NATIONAL WEATHER SERVICE LOUISVILLE KY
1100 PM EST TUE FEB 21 2017

NOTE "FAIR" INDICATES FEW OR NO CLOUDS BELOW 12,000 FEET
WITH NO SIGNIFICANT WEATHER AND/OR OBSTRUCTIONS TO VISIBILITY.

KYZ001>023-026-027-061>063-070>075-220500-
WESTERN AND SOUTH CENTRAL KENTUCKY

CITY           SKY/WX    TMP DP  RH WIND       PRES   REMARKS
PADUCAH        CLOUDY    58  54  86 CALM      29.92R
HENDERSON      CLOUDY    55  52  88 E3        29.91F
OWENSBORO      LGT RAIN  60  55  83 SE6       29.93S
HOPKINSVILLE   MOCLDY    59  59 100 CALM      29.92F
BOWLING GREEN  LGT RAIN  57  55  93 CALM      29.95F
GLASGOW        LGT RAIN  56  56 100 CALM      29.96S
$$

KYZ024-025-028>034-038-045-046-053-220500-
NORTH CENTRAL KENTUCKY

CITY           SKY/WX    TMP DP  RH WIND       PRES   REMARKS
LOUISVILLE/SDF CLOUDY    61  54  77 SE7       29.95F
LOUISVILLE/LOU CLOUDY    62  54  74 SE6       29.96F
FORT KNOX      CLOUDY    57  56  98 E3        29.94S
$$

KYZ035>037-039>044-047>052-055>060-089>105-220500-
NORTHEAST KENTUCKY

CITY           SKY/WX    TMP DP  RH WIND       PRES   REMARKS
LEXINGTON      LGT RAIN  57  55  93 NE5       29.99F FOG
COVINGTON      LGT RAIN  56  55  97 S5        29.97F FOG
FRANKFORT      LGT RAIN  58  55  90 CALM      29.97F FOG
$$

KYZ054-064>069-076>088-106>120-220500-
SOUTHEAST KENTUCKY

CITY           SKY/WX    TMP DP  RH WIND       PRES   REMARKS
JACKSON        LGT RAIN  63  44  50 S3        29.99F
LONDON         CLOUDY    58  51  78 CALM      29.99F
SOMERSET       CLOUDY    54  54 100 CALM      29.99F
MIDDLESBORO    CLOUDY    56  53  89 NW3       30.00S
MONTICELLO     LGT RAIN  57  53  86 NE7       29.99F
$$




USA.gov is the U.S. government's official web portal to all federal, state and local government web resources and services.